Orangeburg, SC

3:13 AM EDT on April 20, 2018 (GMT -0400)
Orangeburg Municipal

Weather History for KOGB - February, 2013

Change the Weather History Date:

Saturday, February 16, 2013

  Actual Average Record
Temperature  
Mean Temperature 41 °F 50 °F  
Max Temperature 48 °F 61 °F 85 °F (1989)
Min Temperature 33 °F 38 °F 16 °F (1991)
Degree Days  
Heating Degree Days 24 15  
Month to date heating degree days 239 267  
Since 1 July heating degree days 1424 1764  
Cooling Degree Days 0 0  
Month to date cooling degree days 0 0  
Year to date cooling degree days 20 1  
Moisture  
Dew Point 35 °F    
Average Humidity 80    
Maximum Humidity 92    
Minimum Humidity 60    
Precipitation  
Precipitation 0.09 in 0.15 in 1.57 in (1969)
Month to date precipitation 4.89 1.79  
Year to date precipitation 5.73 5.77  
Sea Level Pressure  
Sea Level Pressure 29.93 in    
Wind  
Wind Speed 7 mph (NNW)    
Max Wind Speed 20 mph    
Max Gust Speed 28 mph    
Visibility 10 miles    
Events Rain    
T = Trace of Precipitation, MM = Missing Value Source: NWS Daily Summary

Daily Weather History Graph

Daily Weather History Graph

Search for Another Location

Airport or City:

Astronomy

Feb. 16, 2013 Rise Set
Actual Time 7:06 AM EST 6:09 PM EST
Civil Twilight 6:40 AM EST 6:34 PM EST
Nautical Twilight 6:11 AM EST 7:03 PM EST
Astronomical Twilight 5:42 AM EST 7:32 PM EST
Moon 10:39 AM EST (2/16) No Moon Set
Length of Visible Light 11h 53m
Length of Day
11h 03m
Waxing Crescent, 39% of the Moon is Illuminated
Feb 16
Waxing Crescent
Feb 17
First Quarter
Feb 25
Full
Mar 4
Last Quarter
Mar 11
New

Hourly Weather History & Observations

Time (EST) Temp. Windchill Dew Point Humidity Pressure Visibility Wind Dir Wind Speed Gust Speed Precip Events Conditions
12:53 AM 43.0 °F - 39.0 °F 86% 29.96 in 10.0 mi Calm Calm - N/A   Clear
1:53 AM 42.1 °F - 39.0 °F 89% 29.96 in 10.0 mi Calm Calm - N/A   Partly Cloudy
2:53 AM 39.9 °F - 37.9 °F 93% 29.94 in 9.0 mi Calm Calm - N/A   Clear
3:53 AM 39.9 °F - 37.9 °F 93% 29.92 in 9.0 mi Calm Calm - N/A   Clear
4:53 AM 42.1 °F 38.4 °F 37.0 °F 82% 29.91 in 10.0 mi NE 5.8 mph - N/A   Clear
5:53 AM 44.1 °F 39.5 °F 35.1 °F 71% 29.91 in 10.0 mi NNE 8.1 mph - N/A   Clear
6:53 AM 43.0 °F 38.2 °F 35.1 °F 74% 29.92 in 10.0 mi NNE 8.1 mph - N/A   Clear
7:53 AM 44.1 °F 38.1 °F 34.0 °F 68% 29.92 in 10.0 mi NNE 11.5 mph - N/A   Clear
8:53 AM 45.0 °F 39.7 °F 34.0 °F 65% 29.92 in 10.0 mi NNE 10.4 mph 18.4 mph N/A   Clear
9:53 AM 46.9 °F - 33.1 °F 59% 29.94 in 10.0 mi North 10.4 mph 19.6 mph N/A   Mostly Cloudy
10:53 AM 44.1 °F 37.7 °F 36.0 °F 73% 29.95 in 10.0 mi NNW 12.7 mph 18.4 mph 0.00 in Rain Light Rain
11:20 AM 41.0 °F 35.2 °F 35.6 °F 81% 29.95 in 10.0 mi NNW 9.2 mph 17.3 mph 0.00 in Rain Light Rain
11:53 AM 39.9 °F 32.5 °F 36.0 °F 86% 29.96 in 8.0 mi NW 12.7 mph 20.7 mph 0.02 in Rain Light Rain
12:32 PM 37.4 °F 29.8 °F 35.6 °F 93% 29.96 in 6.0 mi NW 11.5 mph 19.6 mph 0.03 in Rain Light Rain
12:53 PM 37.9 °F 32.1 °F 35.1 °F 89% 29.95 in 10.0 mi NW 8.1 mph - 0.04 in Rain Light Rain
1:06 PM 37.4 °F 32.8 °F 35.6 °F 93% 29.93 in 7.0 mi NNW 5.8 mph - 0.01 in Rain Rain
1:16 PM 37.4 °F 33.8 °F 35.6 °F 93% 29.93 in 8.0 mi Variable 4.6 mph - 0.02 in Rain Light Rain
1:49 PM 39.2 °F 35.9 °F 35.6 °F 87% 29.90 in 8.0 mi East 4.6 mph - 0.03 in Rain Light Rain
1:53 PM 39.0 °F 34.8 °F 35.1 °F 86% 29.90 in 9.0 mi East 5.8 mph - 0.03 in Rain Light Rain
2:24 PM 39.2 °F - 37.4 °F 93% 29.88 in 10.0 mi Calm Calm - 0.00 in   Overcast
2:39 PM 39.2 °F 35.9 °F 35.6 °F 87% 29.88 in 10.0 mi WSW 4.6 mph - 0.00 in   Overcast
2:53 PM 39.9 °F 35.8 °F 37.0 °F 89% 29.88 in 10.0 mi West 5.8 mph - 0.00 in   Overcast
3:53 PM 42.1 °F 37.7 °F 36.0 °F 79% 29.87 in 10.0 mi WSW 6.9 mph - N/A   Overcast
4:04 PM 42.8 °F 37.5 °F 35.6 °F 76% 29.87 in 10.0 mi WSW 9.2 mph - N/A   Mostly Cloudy
4:32 PM 42.8 °F 38.6 °F 35.6 °F 76% 29.86 in 10.0 mi SW 6.9 mph - N/A   Mostly Cloudy
4:53 PM 43.0 °F - 36.0 °F 76% 29.86 in 10.0 mi Calm Calm - N/A   Partly Cloudy
5:16 PM 42.8 °F - 35.6 °F 76% 29.86 in 10.0 mi Calm Calm - N/A   Mostly Cloudy
5:50 PM 42.8 °F - 35.6 °F 76% 29.87 in 10.0 mi Calm Calm - N/A   Overcast
5:53 PM 43.0 °F 41.3 °F 36.0 °F 76% 29.87 in 10.0 mi Variable 3.5 mph - N/A   Overcast
6:53 PM 43.0 °F 36.4 °F 34.0 °F 71% 29.91 in 10.0 mi WNW 12.7 mph 23.0 mph 0.00 in   Overcast
7:53 PM 37.0 °F 29.8 °F 30.0 °F 76% 29.96 in 10.0 mi NNW 10.4 mph - N/A   Clear
8:53 PM 37.0 °F 29.8 °F 28.9 °F 73% 30.00 in 10.0 mi NNW 10.4 mph - N/A   Scattered Clouds
9:53 PM 34.0 °F 27.2 °F 30.0 °F 85% 30.04 in 9.0 mi NW 8.1 mph 16.1 mph 0.00 in   Scattered Clouds
10:53 PM 34.0 °F 27.2 °F 27.0 °F 75% 30.05 in 10.0 mi WNW 8.1 mph - N/A   Partly Cloudy
11:53 PM 33.1 °F 25.5 °F 25.0 °F 72% 30.06 in 10.0 mi WNW 9.2 mph - N/A   Clear